星链-32597 (STARLINK-32597)

导读 | 星芒AI

STARLINK-32597 是 SpaceX Starlink 卫星互联网项目中的一颗低轨卫星,属于第6批部署的星链卫星群。该卫星于2023年发射,旨在为全球提供高速、低延迟的宽带互联网服务。它运行在约550公里高的近地轨道,配备先进通信设备,支持Ka/Ku频段数据传输。作为星链网络的一部分,STARLINK-32597 有助于扩大覆盖范围,提升网络性能,特别是在偏远和网络基础设施薄弱的地区。

基本信息
目录编号:
62304
目录名称:
STARLINK-32597
国际标识:
2024-239D
轨道中心:
EARTH
卫星名称:
星链-32597
卫星全名:
星链-32597 (STARLINK-32597)
卫星状态:
在轨 (已飞行329 天)
发射日期:
2024-12-13 UTC
国别 :
美国 (US)
星等 :
--
轨道信息
数据来源 国际轨道数据
星历时间: 2025-11-06T23:25:39+0800
1天前
查看轨道信息
半长轴: 6853.327km
偏心率: 0.0001201
轨道倾角: 53.161°
近地点辐角 72.649°
升交点赤经 32.773°
平近点角 287.464°
近地点: 474.368km
远地点: 476.016km
周期: 94.105分钟
每日圈数: 15.302087
详细信息
固有亮度:
5
最大亮度:
2.5
卫星平台:
Starlink V1.0
覆盖范围:
全球
运营商:
太空探索技术公司
运营商所在国:
美国
制造商(研发单位):
太空探索技术公司
制造商所在国:
美国
使用方式:
暂无
卫星简介
Starlink 计划是 SpaceX 推出的全球卫星互联网项目,通过发射低轨道卫星,为全球尤其是偏远地区提供高速、低延迟的互联网服务。自 2019 年起,Starlink 已部署数千颗卫星,旨在缩小全球数字鸿沟,推动互联网普及。该项目还为军事、航空等行业提供通信支持,带来广泛经济效益。
2D轨道图
3D轨道图
轨道高度分析图
轨道倾角分析图
轨道综合分析图
查看轨道综合分析图